Showing default

ESSA 3 (TOS-A), 2435

Orbit data source: Space-Track

ESSA 3 (TOS-A), 2435 is a payload satellite owned by ESSA (US) in SSO that was launched on Sun, 02 Oct 1966 UTC via a THOR DELTA E launch vehicle from the Air Force Western Test Range (AFWTR). Payload-class satellites include a variety of spacecraft equipped with specific instruments for various scientific and technological missions. These include communications satellites like Starlink; space stations such as the ISS; scientific satellites like the Hubble; Earth observation satellites from companies like Planet Labs, Umbra, and HawkEye 360; GPS; miniature CubeSats for education and research; and military/defense satellites.

Loading next visibility...
Identifier
2435, 1966-087A
Orbit
SSO
Country
Flag of USUS
Related business
Manufacturer
RCA/East Windsor
Mission
Non-operational spacecraft
Bus & Motor
TIROS I, Unknown motor
Mass
148 kg wet, 148 kg dry
Launch date (UTC)
1966-10-02 (59 years ago)
Launch vehicle
THOR DELTA E
Launch site
Air Force Western Test Range (AFWTR)
Object type
Payload
Rocket body
Debris
Shape & HBR
Unknown
Radar Cross Section
Medium (>0.1 m² and <1 m²)

Expand to show TLE details & history
Last TLE update: 11 hours ago

TLE from 11 hours ago
0 ESSA 3 (TOS-A)
1 02435U 66087A   25310.29412947 -.00000026  00000-0  89739-4 0  9999
2 02435 101.0842 221.3833 0064239 122.6983 350.1386 12.56876607711002
Epoch: 2025-11-06T07:03Z
TLE epoch observation values (Epoch: 2025-11-06T07:03:32.786Z)
Latitude
64.94363°
Longitude
-85.61452°
Altitude
1,397.47 km
Speed
7.19 km/s
True Right ascension
04h 24m 06s
True Declination
64° 49' 20"
Sunlit
Object was in full shadow at epoch
Visualization orbit readout
Latitude
Unknown
Longitude
Unknown
Altitude
Unknown
Speed
Unknown
Apparent Right ascension
Unknown
Apparent Declination
Unknown
Sunlit
N/A
Visualization observer readout
Local Sidereal Time
14:04:07
Azimuth
Unknown
Elevation
Unknown
Doppler factor
Unknown
Orbital elements
Apogee altitude
1,483.543 km
Perigee altitude
1,383.182 km
Semi-major axis
7,811.5 km
Eccentricity
0.00642
Inclination
101.0842°
RAAN
221.3833°
Arg. of periapsis
122.6983°
True anomaly
350.01152°
Mean anomaly
350.1386°
Eccentric anomaly
350.07516°
Mean motion
3.1437 °/min
Orbital period
114.51 mins
BSTAR
0.000089739
Loading maneuver chart data...
Computing Atmospheric mass density...
Loading historical data...
Loading historical data...
Loading historical data...
Loading historical data...
Loading historical data...
Loading historical data...
Loading historical data...
Other satellites on launch #87 in the year 1966 (1966-10-02 UTC)

Documentation

Showing up to 5 results
|